Regional Weather Roundup
Issued by NWS

Home | Current Version | Previous Version | Graphics & Text | Print | Product List | Glossary On
Versions: 1 2 3 4 5 6 7 8 9 10 11 12 13 14 15 16 17 18 19 20 21 22 23 24 25 26 27 28 29 30 31 32 33 34 35 36 37 38 39 40 41 42 43 44 45 46 47 48 49 50
379
ASUS43 KLMK 122002
RWRKY
KENTUCKY REGIONAL WEATHER ROUNDUP
NATIONAL WEATHER SERVICE LOUISVILLE KY
300 PM EST FRI FEB 12 2016

NOTE "FAIR" INDICATES FEW OR NO CLOUDS BELOW 12,000 FEET
WITH NO SIGNIFICANT WEATHER AND/OR OBSTRUCTIONS TO VISIBILITY.

KYZ001>023-026-027-061>063-070>075-122100-
WESTERN AND SOUTH CENTRAL KENTUCKY

CITY           SKY/WX    TMP DP  RH WIND       PRES   REMARKS
PADUCAH        PTSUNNY   39  24  55 NW14G23   30.25R WCI  31
HENDERSON      CLOUDY    30  23  74 W12       30.24R WCI  21
OWENSBORO      CLOUDY    32  26  78 W14       30.23R WCI  22
HOPKINSVILLE   PTSUNNY   38  26  63 NW10      30.20S WCI  30
BOWLING GREEN  CLOUDY    36  27  69 W12G17    30.19S WCI  28
GLASGOW        NOT AVBL
$$

KYZ024-025-028>034-038-045-046-053-122100-
NORTH CENTRAL KENTUCKY

CITY           SKY/WX    TMP DP  RH WIND       PRES   REMARKS
LOUISVILLE/SDF CLOUDY    34  19  54 W18       30.15R WCI  23
LOUISVILLE/LOU CLOUDY    33  20  58 NW17G24   30.15S WCI  22
FORT KNOX      CLOUDY    32  22  65 W16       30.13S WCI  22
$$

KYZ035>037-039>044-047>052-055>060-089>105-122100-
NORTHEAST KENTUCKY

CITY           SKY/WX    TMP DP  RH WIND       PRES   REMARKS
LEXINGTON      CLOUDY    31  21  66 W14       30.09S WCI  21
COVINGTON      CLOUDY    27  17  66 W18G25    30.08F WCI  14
FRANKFORT      CLOUDY    32  19  58 W10       30.10S WCI  24
$$

KYZ054-064>069-076>088-106>120-122100-
SOUTHEAST KENTUCKY

CITY           SKY/WX    TMP DP  RH WIND       PRES   REMARKS
JACKSON        CLOUDY    31  20  63 SW8       30.04F WCI  23
LONDON         CLOUDY    30  23  75 W10G18    30.08F WCI  21
SOMERSET       NOT AVBL
MIDDLESBORO    NOT AVBL
MONTICELLO     CLOUDY    32  26  78 W15G21    30.14F WCI  22
$$





USA.gov is the U.S. government's official web portal to all federal, state and local government web resources and services.